Year,Month,Day,Hour,Minute,Value (Times are PST for temperature in C)
2007,09,27,00,00,8.10
2007,09,27,00,01,8.10
2007,09,27,00,02,8.10
2007,09,27,00,03,8.10
2007,09,27,00,04,8.10
2007,09,27,00,05,8.10
2007,09,27,00,06,8.10
2007,09,27,00,07,8.10
2007,09,27,00,08,8.10
2007,09,27,00,09,8.10
2007,09,27,00,10,8.10
2007,09,27,00,11,8.10
2007,09,27,00,12,8.10
2007,09,27,00,13,8.10
2007,09,27,00,14,8.10
2007,09,27,00,15,8.10
2007,09,27,00,16,8.10
2007,09,27,00,17,8.00
2007,09,27,00,18,8.00
2007,09,27,00,19,8.00
2007,09,27,00,20,8.00
2007,09,27,00,21,7.90
2007,09,27,00,22,7.90
2007,09,27,00,23,7.90
2007,09,27,00,24,7.90
2007,09,27,00,25,7.90
2007,09,27,00,26,7.90
2007,09,27,00,27,7.90
2007,09,27,00,28,7.90
2007,09,27,00,29,7.90
2007,09,27,00,30,7.90
2007,09,27,00,31,7.90
2007,09,27,00,32,7.80
2007,09,27,00,33,7.80
2007,09,27,00,34,7.80
2007,09,27,00,35,7.80
2007,09,27,00,36,7.80
2007,09,27,00,37,7.80
2007,09,27,00,38,7.80
2007,09,27,00,39,7.80
2007,09,27,00,40,7.80
2007,09,27,00,41,7.80
2007,09,27,00,42,7.80
2007,09,27,00,43,7.80
2007,09,27,00,44,7.80
2007,09,27,00,45,7.80
2007,09,27,00,46,7.80
2007,09,27,00,47,7.80
2007,09,27,00,48,7.80
2007,09,27,00,49,7.80
2007,09,27,00,50,7.80
2007,09,27,00,51,7.80
2007,09,27,00,52,7.80
2007,09,27,00,53,7.80
2007,09,27,00,54,7.80
2007,09,27,00,55,7.80
2007,09,27,00,56,7.80
2007,09,27,00,57,7.70
2007,09,27,00,58,7.70
2007,09,27,00,59,7.70
2007,09,27,01,00,7.70
2007,09,27,01,01,7.70
2007,09,27,01,02,7.70
2007,09,27,01,03,7.70
2007,09,27,01,04,7.70
2007,09,27,01,05,7.70
2007,09,27,01,06,7.70
2007,09,27,01,07,7.70
2007,09,27,01,08,7.60
2007,09,27,01,09,7.60
2007,09,27,01,10,7.60
2007,09,27,01,11,7.60
2007,09,27,01,12,7.60
2007,09,27,01,13,7.60
2007,09,27,01,14,7.60
2007,09,27,01,15,7.60
2007,09,27,01,16,7.60
2007,09,27,01,17,7.60
2007,09,27,01,18,7.60
2007,09,27,01,19,7.60
2007,09,27,01,20,7.60
2007,09,27,01,21,7.60
2007,09,27,01,22,7.60
2007,09,27,01,23,7.60
2007,09,27,01,24,7.70
2007,09,27,01,25,7.70
2007,09,27,01,26,7.70
2007,09,27,01,27,7.70
2007,09,27,01,28,7.70
2007,09,27,01,29,7.60
2007,09,27,01,30,7.60
2007,09,27,01,31,7.60
2007,09,27,01,32,7.60
2007,09,27,01,33,7.60
2007,09,27,01,34,7.70
2007,09,27,01,35,7.70
2007,09,27,01,36,7.70
2007,09,27,01,37,7.70
2007,09,27,01,38,7.70
2007,09,27,01,39,7.70
2007,09,27,01,40,7.70
2007,09,27,01,41,7.70
2007,09,27,01,42,7.70
2007,09,27,01,43,7.70
2007,09,27,01,44,7.70
2007,09,27,01,45,7.70
2007,09,27,01,46,7.70
2007,09,27,01,47,7.70
2007,09,27,01,48,7.70
2007,09,27,01,49,7.70
2007,09,27,01,50,7.70
2007,09,27,01,51,7.70
2007,09,27,01,52,7.70
2007,09,27,01,53,7.70
2007,09,27,01,54,7.70
2007,09,27,01,55,7.70
2007,09,27,01,56,7.70
2007,09,27,01,57,7.70
2007,09,27,01,58,7.70
2007,09,27,01,59,7.70
2007,09,27,02,00,7.70
2007,09,27,02,01,7.80
2007,09,27,02,02,7.80
2007,09,27,02,03,7.80
2007,09,27,02,04,7.70
2007,09,27,02,05,7.70
2007,09,27,02,06,7.70
2007,09,27,02,07,7.70
2007,09,27,02,08,7.70
2007,09,27,02,09,7.70
2007,09,27,02,10,7.70
2007,09,27,02,11,7.70
2007,09,27,02,12,7.70
2007,09,27,02,13,7.70
2007,09,27,02,14,7.70
2007,09,27,02,15,7.70
2007,09,27,02,16,7.70
2007,09,27,02,17,7.70
2007,09,27,02,18,7.70
2007,09,27,02,19,7.70
2007,09,27,02,20,7.70
2007,09,27,02,21,7.70
2007,09,27,02,22,7.70
2007,09,27,02,23,7.70
2007,09,27,02,24,7.70
2007,09,27,02,25,7.70
2007,09,27,02,26,7.70
2007,09,27,02,27,7.70
2007,09,27,02,28,7.70
2007,09,27,02,29,7.70
2007,09,27,02,30,7.70
2007,09,27,02,31,7.60
2007,09,27,02,32,7.60
2007,09,27,02,33,7.70
2007,09,27,02,34,7.70
2007,09,27,02,35,7.70
2007,09,27,02,36,7.70
2007,09,27,02,37,7.70
2007,09,27,02,38,7.70
2007,09,27,02,39,7.70
2007,09,27,02,40,7.70
2007,09,27,02,41,7.80
2007,09,27,02,42,7.80
2007,09,27,02,43,7.80
2007,09,27,02,44,7.80
2007,09,27,02,45,7.80
2007,09,27,02,46,7.80
2007,09,27,02,47,7.80
2007,09,27,02,48,7.80
2007,09,27,02,49,7.80
2007,09,27,02,50,7.80
2007,09,27,02,51,7.80
2007,09,27,02,52,7.80
2007,09,27,02,53,7.70
2007,09,27,02,54,7.70
2007,09,27,02,55,7.70
2007,09,27,02,56,7.70
2007,09,27,02,57,7.70
2007,09,27,02,58,7.70
2007,09,27,02,59,7.80
2007,09,27,03,00,7.80
2007,09,27,03,01,7.80
2007,09,27,03,02,7.80
2007,09,27,03,03,7.80
2007,09,27,03,04,7.80
2007,09,27,03,05,7.80
2007,09,27,03,06,7.80
2007,09,27,03,07,7.80
2007,09,27,03,08,7.80
2007,09,27,03,09,7.80
2007,09,27,03,10,7.70
2007,09,27,03,11,7.70
2007,09,27,03,12,7.70
2007,09,27,03,13,7.70
2007,09,27,03,14,7.70
2007,09,27,03,15,7.70
2007,09,27,03,16,7.70
2007,09,27,03,17,7.70
2007,09,27,03,18,7.70
2007,09,27,03,19,7.70
2007,09,27,03,20,7.70
2007,09,27,03,21,7.70
2007,09,27,03,22,7.70
2007,09,27,03,23,7.70
2007,09,27,03,24,7.70
2007,09,27,03,25,7.70
2007,09,27,03,26,7.70
2007,09,27,03,27,7.60
2007,09,27,03,28,7.60
2007,09,27,03,29,7.70
2007,09,27,03,30,7.70
2007,09,27,03,31,7.70
2007,09,27,03,32,7.70
2007,09,27,03,33,7.70
2007,09,27,03,34,7.70
2007,09,27,03,35,7.70
2007,09,27,03,36,7.70
2007,09,27,03,37,7.70
2007,09,27,03,38,7.70
2007,09,27,03,39,7.70
2007,09,27,03,40,7.70
2007,09,27,03,41,7.70
2007,09,27,03,42,7.70
2007,09,27,03,43,7.70
2007,09,27,03,44,7.80
2007,09,27,03,45,7.80
2007,09,27,03,46,7.80
2007,09,27,03,47,7.80
2007,09,27,03,48,7.80
2007,09,27,03,49,7.80
2007,09,27,03,50,7.80
2007,09,27,03,51,7.80
2007,09,27,03,52,7.80
2007,09,27,03,53,7.80
2007,09,27,03,54,7.80
2007,09,27,03,55,7.80
2007,09,27,03,56,7.80
2007,09,27,03,57,7.80
2007,09,27,03,58,7.80
2007,09,27,03,59,7.80
2007,09,27,04,00,7.80
2007,09,27,04,01,7.80
2007,09,27,04,02,7.80
2007,09,27,04,03,7.80
2007,09,27,04,04,7.80
2007,09,27,04,05,7.80
2007,09,27,04,06,7.80
2007,09,27,04,07,7.80
2007,09,27,04,08,7.80
2007,09,27,04,09,7.80
2007,09,27,04,10,7.70
2007,09,27,04,11,7.70
2007,09,27,04,12,7.70
2007,09,27,04,13,7.70
2007,09,27,04,14,7.70
2007,09,27,04,15,7.70
2007,09,27,04,16,7.70
2007,09,27,04,17,7.70
2007,09,27,04,18,7.70
2007,09,27,04,19,7.70
2007,09,27,04,20,7.70
2007,09,27,04,21,7.70
2007,09,27,04,22,7.70
2007,09,27,04,23,7.70
2007,09,27,04,24,7.70
2007,09,27,04,25,7.70
2007,09,27,04,26,7.70
2007,09,27,04,27,7.70
2007,09,27,04,28,7.70
2007,09,27,04,29,7.70
2007,09,27,04,30,7.70
2007,09,27,04,31,7.70
2007,09,27,04,32,7.70
2007,09,27,04,33,7.70
2007,09,27,04,34,7.70
2007,09,27,04,35,7.70
2007,09,27,04,36,7.70
2007,09,27,04,37,7.70
2007,09,27,04,38,7.70
2007,09,27,04,39,7.70
2007,09,27,04,40,7.70
2007,09,27,04,41,7.70
2007,09,27,04,42,7.70
2007,09,27,04,43,7.70
2007,09,27,04,44,7.70
2007,09,27,04,45,7.70
2007,09,27,04,46,7.70
2007,09,27,04,47,7.70
2007,09,27,04,48,7.70
2007,09,27,04,49,7.70
2007,09,27,04,50,7.70
2007,09,27,04,51,7.70
2007,09,27,04,52,7.70
2007,09,27,04,53,7.60
2007,09,27,04,54,7.60
2007,09,27,04,55,7.60
2007,09,27,04,56,7.70
2007,09,27,04,57,7.60
2007,09,27,04,58,7.60
2007,09,27,04,59,7.60
2007,09,27,05,00,7.60
2007,09,27,05,01,7.60
2007,09,27,05,02,7.60
2007,09,27,05,03,7.60
2007,09,27,05,04,7.60
2007,09,27,05,05,7.60
2007,09,27,05,06,7.60
2007,09,27,05,07,7.60
2007,09,27,05,08,7.60
2007,09,27,05,09,7.60
2007,09,27,05,10,7.60
2007,09,27,05,11,7.60
2007,09,27,05,12,7.60
2007,09,27,05,13,7.60
2007,09,27,05,14,7.60
2007,09,27,05,15,7.60
2007,09,27,05,16,7.50
2007,09,27,05,17,7.50
2007,09,27,05,18,7.50
2007,09,27,05,19,7.60
2007,09,27,05,20,7.60
2007,09,27,05,21,7.60
2007,09,27,05,22,7.60
2007,09,27,05,23,7.60
2007,09,27,05,24,7.60
2007,09,27,05,25,7.60
2007,09,27,05,26,7.60
2007,09,27,05,27,7.60
2007,09,27,05,28,7.60
2007,09,27,05,29,7.60
2007,09,27,05,30,7.50
2007,09,27,05,31,7.50
2007,09,27,05,32,7.50
2007,09,27,05,33,7.50
2007,09,27,05,34,7.50
2007,09,27,05,35,7.50
2007,09,27,05,36,7.50
2007,09,27,05,37,7.40
2007,09,27,05,38,7.40
2007,09,27,05,39,7.40
2007,09,27,05,40,7.40
2007,09,27,05,41,7.40
2007,09,27,05,42,7.40
2007,09,27,05,43,7.40
2007,09,27,05,44,7.40
2007,09,27,05,45,7.40
2007,09,27,05,46,7.40
2007,09,27,05,47,7.40
2007,09,27,05,48,7.40
2007,09,27,05,49,7.40
2007,09,27,05,50,7.40
2007,09,27,05,51,7.40
2007,09,27,05,52,7.40
2007,09,27,05,53,7.40
2007,09,27,05,54,7.40
2007,09,27,05,55,7.50
2007,09,27,05,56,7.50
2007,09,27,05,57,7.50
2007,09,27,05,58,7.50
2007,09,27,05,59,7.50
2007,09,27,06,00,7.50
2007,09,27,06,01,7.50
2007,09,27,06,02,7.50
2007,09,27,06,03,7.50
2007,09,27,06,04,7.50
2007,09,27,06,05,7.50
2007,09,27,06,06,7.40
2007,09,27,06,07,7.40
2007,09,27,06,08,7.40
2007,09,27,06,09,7.40
2007,09,27,06,10,7.40
2007,09,27,06,11,7.40
2007,09,27,06,12,7.40
2007,09,27,06,13,7.40
2007,09,27,06,14,7.40
2007,09,27,06,15,7.40
2007,09,27,06,16,7.40
2007,09,27,06,17,7.40
2007,09,27,06,18,7.40
2007,09,27,06,19,7.40
2007,09,27,06,20,7.50
2007,09,27,06,21,7.50
2007,09,27,06,22,7.50
2007,09,27,06,23,7.50
2007,09,27,06,24,7.50
2007,09,27,06,25,7.50
2007,09,27,06,26,7.50
2007,09,27,06,27,7.50
2007,09,27,06,28,7.50
2007,09,27,06,29,7.40
2007,09,27,06,30,7.40
2007,09,27,06,31,7.40
2007,09,27,06,32,7.40
2007,09,27,06,33,7.40
2007,09,27,06,34,7.40
2007,09,27,06,35,7.40
2007,09,27,06,36,7.40
2007,09,27,06,37,7.40
2007,09,27,06,38,7.40
2007,09,27,06,39,7.40
2007,09,27,06,40,7.40
2007,09,27,06,41,7.40
2007,09,27,06,42,7.40
2007,09,27,06,43,7.50
2007,09,27,06,44,7.50
2007,09,27,06,45,7.50
2007,09,27,06,46,7.50
2007,09,27,06,47,7.40
2007,09,27,06,48,7.40
2007,09,27,06,49,7.40
2007,09,27,06,50,7.40
2007,09,27,06,51,7.40
2007,09,27,06,52,7.40
2007,09,27,06,53,7.40
2007,09,27,06,54,7.40
2007,09,27,06,55,7.40
2007,09,27,06,56,7.40
2007,09,27,06,57,7.50
2007,09,27,06,58,7.50
2007,09,27,06,59,7.50
2007,09,27,07,00,7.50
2007,09,27,07,01,7.40
2007,09,27,07,02,7.40
2007,09,27,07,03,7.40
2007,09,27,07,04,7.40
2007,09,27,07,05,7.40
2007,09,27,07,06,7.40
2007,09,27,07,07,7.40
2007,09,27,07,08,7.40
2007,09,27,07,09,7.40
2007,09,27,07,10,7.40
2007,09,27,07,11,7.40
2007,09,27,07,12,7.40
2007,09,27,07,13,7.40
2007,09,27,07,14,7.40
2007,09,27,07,15,7.40
2007,09,27,07,16,7.40
2007,09,27,07,17,7.40
2007,09,27,07,18,7.40
2007,09,27,07,19,7.40
2007,09,27,07,20,7.40
2007,09,27,07,21,7.40
2007,09,27,07,22,7.50
2007,09,27,07,23,7.50
2007,09,27,07,24,7.50
2007,09,27,07,25,7.50
2007,09,27,07,26,7.50
2007,09,27,07,27,7.50
2007,09,27,07,28,7.50
2007,09,27,07,29,7.50
2007,09,27,07,30,7.50
2007,09,27,07,31,7.50
2007,09,27,07,32,7.50
2007,09,27,07,33,7.50
2007,09,27,07,34,7.50
2007,09,27,07,35,7.50
2007,09,27,07,36,7.50
2007,09,27,07,37,7.50
2007,09,27,07,38,7.50
2007,09,27,07,39,7.60
2007,09,27,07,40,7.60
2007,09,27,07,41,7.60
2007,09,27,07,42,7.60
2007,09,27,07,43,7.60
2007,09,27,07,44,7.60
2007,09,27,07,45,7.60
2007,09,27,07,46,7.70
2007,09,27,07,47,7.70
2007,09,27,07,48,7.70
2007,09,27,07,49,7.70
2007,09,27,07,50,7.70
2007,09,27,07,51,7.70
2007,09,27,07,52,7.70
2007,09,27,07,53,7.70
2007,09,27,07,54,7.70
2007,09,27,07,55,7.70
2007,09,27,07,56,7.70
2007,09,27,07,57,7.70
2007,09,27,07,58,7.70
2007,09,27,07,59,7.70
2007,09,27,08,00,7.70
2007,09,27,08,01,7.70
2007,09,27,08,02,7.70
2007,09,27,08,03,7.70
2007,09,27,08,04,7.70
2007,09,27,08,05,7.70
2007,09,27,08,06,7.70
2007,09,27,08,07,7.80
2007,09,27,08,08,7.80
2007,09,27,08,09,7.80
2007,09,27,08,10,7.80
2007,09,27,08,11,7.80
2007,09,27,08,12,7.80
2007,09,27,08,13,7.80
2007,09,27,08,14,7.80
2007,09,27,08,15,7.80
2007,09,27,08,16,7.80
2007,09,27,08,17,7.80
2007,09,27,08,18,7.80
2007,09,27,08,19,7.80
2007,09,27,08,20,7.80
2007,09,27,08,21,7.80
2007,09,27,08,22,7.90
2007,09,27,08,23,7.90
2007,09,27,08,24,7.90
2007,09,27,08,25,7.90
2007,09,27,08,26,7.90
2007,09,27,08,27,7.90
2007,09,27,08,28,7.90
2007,09,27,08,29,7.90
2007,09,27,08,30,7.90
2007,09,27,08,31,7.90
2007,09,27,08,32,8.00
2007,09,27,08,33,8.00
2007,09,27,08,34,8.00
2007,09,27,08,35,8.00
2007,09,27,08,36,8.00
2007,09,27,08,37,8.00
2007,09,27,08,38,8.10
2007,09,27,08,39,8.10
2007,09,27,08,40,8.10
2007,09,27,08,41,8.10
2007,09,27,08,42,8.20
2007,09,27,08,43,8.20
2007,09,27,08,44,8.20
2007,09,27,08,45,8.20
2007,09,27,08,46,8.20
2007,09,27,08,47,8.20
2007,09,27,08,48,8.20
2007,09,27,08,49,8.20
2007,09,27,08,50,8.20
2007,09,27,08,51,8.30
2007,09,27,08,52,8.30
2007,09,27,08,53,8.30
2007,09,27,08,54,8.40
2007,09,27,08,55,8.40
2007,09,27,08,56,8.40
2007,09,27,08,57,8.40
2007,09,27,08,58,8.50
2007,09,27,08,59,8.50
2007,09,27,09,00,8.60
2007,09,27,09,01,8.70
2007,09,27,09,02,8.70
2007,09,27,09,03,8.70
2007,09,27,09,04,8.70
2007,09,27,09,05,8.80
2007,09,27,09,06,8.80
2007,09,27,09,07,8.90
2007,09,27,09,08,8.90
2007,09,27,09,09,8.90
2007,09,27,09,10,8.90
2007,09,27,09,11,9.00
2007,09,27,09,12,9.00
2007,09,27,09,13,9.00
2007,09,27,09,14,9.10
2007,09,27,09,15,9.10
2007,09,27,09,16,9.10
2007,09,27,09,17,9.20
2007,09,27,09,18,9.20
2007,09,27,09,19,9.20
2007,09,27,09,20,9.30
2007,09,27,09,21,9.30
2007,09,27,09,22,9.40
2007,09,27,09,23,9.40
2007,09,27,09,24,9.40
2007,09,27,09,25,9.50
2007,09,27,09,26,9.50
2007,09,27,09,27,9.50
2007,09,27,09,28,9.60
2007,09,27,09,29,9.60
2007,09,27,09,30,9.60
2007,09,27,09,31,9.70
2007,09,27,09,32,9.70
2007,09,27,09,33,9.70
2007,09,27,09,34,9.70
2007,09,27,09,35,9.80
2007,09,27,09,36,9.80
2007,09,27,09,37,9.90
2007,09,27,09,38,9.90
2007,09,27,09,39,9.90
2007,09,27,09,40,10.00
2007,09,27,09,41,10.10
2007,09,27,09,42,10.10
2007,09,27,09,43,10.10
2007,09,27,09,44,10.10
2007,09,27,09,45,10.10
2007,09,27,09,46,10.20
2007,09,27,09,47,10.20
2007,09,27,09,48,10.20
2007,09,27,09,49,10.20
2007,09,27,09,50,10.20
2007,09,27,09,51,10.30
2007,09,27,09,52,10.30
2007,09,27,09,53,10.30
2007,09,27,09,54,10.30
2007,09,27,09,55,10.30
2007,09,27,09,56,10.40
2007,09,27,09,57,10.40
2007,09,27,09,58,10.40
2007,09,27,09,59,10.40
2007,09,27,10,00,10.40
2007,09,27,10,01,10.40
2007,09,27,10,02,10.50
2007,09,27,10,03,10.60
2007,09,27,10,04,10.60
2007,09,27,10,05,10.60
2007,09,27,10,06,10.60
2007,09,27,10,07,10.60
2007,09,27,10,08,10.60
2007,09,27,10,09,10.60
2007,09,27,10,10,10.70
2007,09,27,10,11,10.70
2007,09,27,10,12,10.70
2007,09,27,10,13,10.80
2007,09,27,10,14,10.80
2007,09,27,10,15,10.90
2007,09,27,10,16,10.90
2007,09,27,10,17,10.90
2007,09,27,10,18,11.00
2007,09,27,10,19,11.10
2007,09,27,10,20,11.10
2007,09,27,10,21,11.10
2007,09,27,10,22,11.10
2007,09,27,10,23,11.20
2007,09,27,10,24,11.20
2007,09,27,10,25,11.30
2007,09,27,10,26,11.30
2007,09,27,10,27,11.40
2007,09,27,10,28,11.40
2007,09,27,10,29,11.40
2007,09,27,10,30,11.50
2007,09,27,10,31,11.60
2007,09,27,10,32,11.60
2007,09,27,10,33,11.60
2007,09,27,10,34,11.60
2007,09,27,10,35,11.70
2007,09,27,10,36,11.70
2007,09,27,10,37,11.80
2007,09,27,10,38,11.80
2007,09,27,10,39,11.80
2007,09,27,10,40,11.80
2007,09,27,10,41,11.90
2007,09,27,10,42,11.90
2007,09,27,10,43,11.90
2007,09,27,10,44,12.00
2007,09,27,10,45,12.00
2007,09,27,10,46,12.00
2007,09,27,10,47,12.10
2007,09,27,10,48,12.10
2007,09,27,10,49,12.20
2007,09,27,10,50,12.30
2007,09,27,10,51,12.30
2007,09,27,10,52,12.40
2007,09,27,10,53,12.40
2007,09,27,10,54,12.50
2007,09,27,10,55,12.50
2007,09,27,10,56,12.60
2007,09,27,10,57,12.60
2007,09,27,10,58,12.70
2007,09,27,10,59,12.70
2007,09,27,11,00,12.80
2007,09,27,11,01,12.80
2007,09,27,11,02,12.80
2007,09,27,11,03,12.80
2007,09,27,11,04,12.90
2007,09,27,11,05,12.90
2007,09,27,11,06,13.00
2007,09,27,11,07,13.00
2007,09,27,11,08,13.00
2007,09,27,11,09,13.10
2007,09,27,11,10,13.10
2007,09,27,11,11,13.10
2007,09,27,11,12,13.10
2007,09,27,11,13,13.20
2007,09,27,11,14,13.20
2007,09,27,11,15,13.20
2007,09,27,11,16,13.20
2007,09,27,11,17,13.30
2007,09,27,11,18,13.30
2007,09,27,11,19,13.30
2007,09,27,11,20,13.30
2007,09,27,11,21,13.30
2007,09,27,11,22,13.40
2007,09,27,11,23,13.40
2007,09,27,11,24,13.40
2007,09,27,11,25,13.40
2007,09,27,11,26,13.50
2007,09,27,11,27,13.50
2007,09,27,11,28,13.50
2007,09,27,11,29,13.60
2007,09,27,11,30,13.60
2007,09,27,11,31,13.60
2007,09,27,11,32,13.60
2007,09,27,11,33,13.70
2007,09,27,11,34,13.70
2007,09,27,11,35,13.70
2007,09,27,11,36,13.70
2007,09,27,11,37,13.70
2007,09,27,11,38,13.80
2007,09,27,11,39,13.80
2007,09,27,11,40,13.90
2007,09,27,11,41,13.90
2007,09,27,11,42,14.00
2007,09,27,11,43,14.00
2007,09,27,11,44,14.10
2007,09,27,11,45,14.10
2007,09,27,11,46,14.20
2007,09,27,11,47,14.20
2007,09,27,11,48,14.20
2007,09,27,11,49,14.20
2007,09,27,11,50,14.20
2007,09,27,11,51,14.30
2007,09,27,11,52,14.40
2007,09,27,11,53,14.40
2007,09,27,11,54,14.50
2007,09,27,11,55,14.60
2007,09,27,11,56,14.60
2007,09,27,11,57,14.70
2007,09,27,11,58,14.70
2007,09,27,11,59,14.80
2007,09,27,12,00,14.90
2007,09,27,12,01,15.10
2007,09,27,12,02,15.20
2007,09,27,12,03,15.30
2007,09,27,12,04,15.40
2007,09,27,12,05,15.50
2007,09,27,12,06,15.60
2007,09,27,12,07,15.70
2007,09,27,12,08,15.70
2007,09,27,12,09,15.80
2007,09,27,12,10,15.80
2007,09,27,12,11,15.80
2007,09,27,12,12,15.80
2007,09,27,12,13,15.90
2007,09,27,12,14,15.90
2007,09,27,12,15,16.10
2007,09,27,12,16,16.10
2007,09,27,12,17,16.10
2007,09,27,12,18,16.10
2007,09,27,12,19,16.10
2007,09,27,12,20,16.10
2007,09,27,12,21,16.10
2007,09,27,12,22,16.10
2007,09,27,12,23,16.10
2007,09,27,12,24,16.10
2007,09,27,12,25,16.20
2007,09,27,12,26,16.20
2007,09,27,12,27,16.20
2007,09,27,12,28,16.20
2007,09,27,12,29,16.20
2007,09,27,12,30,16.10
2007,09,27,12,31,16.10
2007,09,27,12,32,16.10
2007,09,27,12,33,16.10
2007,09,27,12,34,16.10
2007,09,27,12,35,16.10
2007,09,27,12,36,16.10
2007,09,27,12,37,16.10
2007,09,27,12,38,16.10
2007,09,27,12,39,16.10
2007,09,27,12,40,16.10
2007,09,27,12,41,16.10
2007,09,27,12,42,16.00
2007,09,27,12,43,15.90
2007,09,27,12,44,15.90
2007,09,27,12,45,15.80
2007,09,27,12,46,15.80
2007,09,27,12,47,15.80
2007,09,27,12,48,15.80
2007,09,27,12,49,15.80
2007,09,27,12,50,15.80
2007,09,27,12,51,15.70
2007,09,27,12,52,15.70
2007,09,27,12,53,15.70
2007,09,27,12,54,15.70
2007,09,27,12,55,15.70
2007,09,27,12,56,15.70
2007,09,27,12,57,15.60
2007,09,27,12,58,15.60
2007,09,27,12,59,15.60
2007,09,27,13,00,15.60
2007,09,27,13,01,15.60
2007,09,27,13,02,15.50
2007,09,27,13,03,15.50
2007,09,27,13,04,15.50
2007,09,27,13,05,15.40
2007,09,27,13,06,15.40
2007,09,27,13,07,15.40
2007,09,27,13,08,15.30
2007,09,27,13,09,15.30
2007,09,27,13,10,15.30
2007,09,27,13,11,15.30
2007,09,27,13,12,15.30
2007,09,27,13,13,15.20
2007,09,27,13,14,15.20
2007,09,27,13,15,15.10
2007,09,27,13,16,15.10
2007,09,27,13,17,15.00
2007,09,27,13,18,15.00
2007,09,27,13,19,14.90
2007,09,27,13,20,14.90
2007,09,27,13,21,14.90
2007,09,27,13,22,14.80
2007,09,27,13,23,14.80
2007,09,27,13,24,14.70
2007,09,27,13,25,14.70
2007,09,27,13,26,14.70
2007,09,27,13,27,14.60
2007,09,27,13,28,14.50
2007,09,27,13,29,14.50
2007,09,27,13,30,14.40
2007,09,27,13,31,14.40
2007,09,27,13,32,14.30
2007,09,27,13,33,14.30
2007,09,27,13,34,14.30
2007,09,27,13,35,14.30
2007,09,27,13,36,14.20
2007,09,27,13,37,14.20
2007,09,27,13,38,14.20
2007,09,27,13,39,14.20
2007,09,27,13,40,14.20
2007,09,27,13,41,14.20
2007,09,27,13,42,14.20
2007,09,27,13,43,14.20
2007,09,27,13,44,14.20
2007,09,27,13,45,14.20
2007,09,27,13,46,14.20
2007,09,27,13,47,14.20
2007,09,27,13,48,14.20
2007,09,27,13,49,14.20
2007,09,27,13,50,14.20
2007,09,27,13,51,14.20
2007,09,27,13,52,14.20
2007,09,27,13,53,14.20
2007,09,27,13,54,14.20
2007,09,27,13,55,14.20
2007,09,27,13,56,14.20
2007,09,27,13,57,14.20
2007,09,27,13,58,14.20
2007,09,27,13,59,14.20
2007,09,27,14,00,14.20
2007,09,27,14,01,14.20
2007,09,27,14,02,14.20
2007,09,27,14,03,14.30
2007,09,27,14,04,14.30
2007,09,27,14,05,14.20
2007,09,27,14,06,14.20
2007,09,27,14,07,14.30
2007,09,27,14,08,14.30
2007,09,27,14,09,14.30
2007,09,27,14,10,14.30
2007,09,27,14,11,14.30
2007,09,27,14,12,14.30
2007,09,27,14,13,14.30
2007,09,27,14,14,14.40
2007,09,27,14,15,14.40
2007,09,27,14,16,14.40
2007,09,27,14,17,14.40
2007,09,27,14,18,14.40
2007,09,27,14,19,14.40
2007,09,27,14,20,14.40
2007,09,27,14,21,14.40
2007,09,27,14,22,14.40
2007,09,27,14,23,14.30
2007,09,27,14,24,14.30
2007,09,27,14,25,14.30
2007,09,27,14,26,14.30
2007,09,27,14,27,14.30
2007,09,27,14,28,14.30
2007,09,27,14,29,14.30
2007,09,27,14,30,14.30
2007,09,27,14,31,14.30
2007,09,27,14,32,14.30
2007,09,27,14,33,14.30
2007,09,27,14,34,14.30
2007,09,27,14,35,14.30
2007,09,27,14,36,14.20
2007,09,27,14,37,14.30
2007,09,27,14,38,14.30
2007,09,27,14,39,14.30
2007,09,27,14,40,14.30
2007,09,27,14,41,14.30
2007,09,27,14,42,14.30
2007,09,27,14,43,14.30
2007,09,27,14,44,14.30
2007,09,27,14,45,14.30
2007,09,27,14,46,14.30
2007,09,27,14,47,14.30
2007,09,27,14,48,14.30
2007,09,27,14,49,14.30
2007,09,27,14,50,14.30
2007,09,27,14,51,14.30
2007,09,27,14,52,14.20
2007,09,27,14,53,14.20
2007,09,27,14,54,14.20
2007,09,27,14,55,14.20
2007,09,27,14,56,14.20
2007,09,27,14,57,14.20
2007,09,27,14,58,14.20
2007,09,27,14,59,14.20
2007,09,27,15,00,14.20
2007,09,27,15,01,14.20
2007,09,27,15,02,14.20
2007,09,27,15,03,14.20
2007,09,27,15,04,14.20
2007,09,27,15,05,14.20
2007,09,27,15,06,14.20
2007,09,27,15,07,14.20
2007,09,27,15,08,14.20
2007,09,27,15,09,14.20
2007,09,27,15,10,14.20
2007,09,27,15,11,14.30
2007,09,27,15,12,14.30
2007,09,27,15,13,14.30
2007,09,27,15,14,14.30
2007,09,27,15,15,14.30
2007,09,27,15,16,14.30
2007,09,27,15,17,14.30
2007,09,27,15,18,14.30
2007,09,27,15,19,14.30
2007,09,27,15,20,14.30
2007,09,27,15,21,14.30
2007,09,27,15,22,14.30
2007,09,27,15,23,14.30
2007,09,27,15,24,14.30
2007,09,27,15,25,14.40
2007,09,27,15,26,14.40
2007,09,27,15,27,14.40
2007,09,27,15,28,14.40
2007,09,27,15,29,14.30
2007,09,27,15,30,14.30
2007,09,27,15,31,14.30
2007,09,27,15,32,14.40
2007,09,27,15,33,14.40
2007,09,27,15,34,14.40
2007,09,27,15,35,14.40
2007,09,27,15,36,14.40
2007,09,27,15,37,14.40
2007,09,27,15,38,14.40
2007,09,27,15,39,14.40
2007,09,27,15,40,14.40
2007,09,27,15,41,14.50
2007,09,27,15,42,14.50
2007,09,27,15,43,14.50
2007,09,27,15,44,14.50
2007,09,27,15,45,14.50
2007,09,27,15,46,14.50
2007,09,27,15,47,14.50
2007,09,27,15,48,14.50
2007,09,27,15,49,14.50
2007,09,27,15,50,14.50
2007,09,27,15,51,14.40
2007,09,27,15,52,14.40
2007,09,27,15,53,14.40
2007,09,27,15,54,14.30
2007,09,27,15,55,14.30
2007,09,27,15,56,14.30
2007,09,27,15,57,14.30
2007,09,27,15,58,14.30
2007,09,27,15,59,14.30
2007,09,27,16,00,14.30
2007,09,27,16,01,14.30
2007,09,27,16,02,14.30
2007,09,27,16,03,14.20
2007,09,27,16,04,14.20
2007,09,27,16,05,14.20
2007,09,27,16,06,14.20
2007,09,27,16,07,14.20
2007,09,27,16,08,14.20
2007,09,27,16,09,14.20
2007,09,27,16,10,14.10
2007,09,27,16,11,14.10
2007,09,27,16,12,14.10
2007,09,27,16,13,14.20
2007,09,27,16,14,14.20
2007,09,27,16,15,14.20
2007,09,27,16,16,14.20
2007,09,27,16,17,14.20
2007,09,27,16,18,14.20
2007,09,27,16,19,14.20
2007,09,27,16,20,14.20
2007,09,27,16,21,14.20
2007,09,27,16,22,14.20
2007,09,27,16,23,14.20
2007,09,27,16,24,14.20
2007,09,27,16,25,14.20
2007,09,27,16,26,14.20
2007,09,27,16,27,14.20
2007,09,27,16,28,14.20
2007,09,27,16,29,14.20
2007,09,27,16,30,14.20
2007,09,27,16,31,14.20
2007,09,27,16,32,14.20
2007,09,27,16,33,14.20
2007,09,27,16,34,14.20
2007,09,27,16,35,14.20
2007,09,27,16,36,14.20
2007,09,27,16,37,14.20
2007,09,27,16,38,14.20
2007,09,27,16,39,14.20
2007,09,27,16,40,14.20
2007,09,27,16,41,14.20
2007,09,27,16,42,14.20
2007,09,27,16,43,14.20
2007,09,27,16,44,14.20
2007,09,27,16,45,14.20
2007,09,27,16,46,14.20
2007,09,27,16,47,14.20
2007,09,27,16,48,14.20
2007,09,27,16,49,14.20
2007,09,27,16,50,14.20
2007,09,27,16,51,14.20
2007,09,27,16,52,14.20
2007,09,27,16,53,14.30
2007,09,27,16,54,14.30
2007,09,27,16,55,14.30
2007,09,27,16,56,14.30
2007,09,27,16,57,14.30
2007,09,27,16,58,14.30
2007,09,27,16,59,14.30
2007,09,27,17,00,14.30
2007,09,27,17,01,14.30
2007,09,27,17,02,14.30
2007,09,27,17,03,14.20
2007,09,27,17,04,14.20
2007,09,27,17,05,14.20
2007,09,27,17,06,14.20
2007,09,27,17,07,14.20
2007,09,27,17,08,14.20
2007,09,27,17,09,14.20
2007,09,27,17,10,14.20
2007,09,27,17,11,14.20
2007,09,27,17,12,14.20
2007,09,27,17,13,14.20
2007,09,27,17,14,14.20
2007,09,27,17,15,14.20
2007,09,27,17,16,14.20
2007,09,27,17,17,14.20
2007,09,27,17,18,14.20
2007,09,27,17,19,14.20
2007,09,27,17,20,14.20
2007,09,27,17,21,14.20
2007,09,27,17,22,14.20
2007,09,27,17,23,14.20
2007,09,27,17,24,14.20
2007,09,27,17,25,14.20
2007,09,27,17,26,14.20
2007,09,27,17,27,14.20
2007,09,27,17,28,14.10
2007,09,27,17,29,14.10
2007,09,27,17,30,14.10
2007,09,27,17,31,14.10
2007,09,27,17,32,14.10
2007,09,27,17,33,14.10
2007,09,27,17,34,14.00
2007,09,27,17,35,14.00
2007,09,27,17,36,14.00
2007,09,27,17,37,14.00
2007,09,27,17,38,14.00
2007,09,27,17,39,14.00
2007,09,27,17,40,14.00
2007,09,27,17,41,13.90
2007,09,27,17,42,13.90
2007,09,27,17,43,13.90
2007,09,27,17,44,13.90